COSMOS 2491 DEB, 57556

Orbit data source: Space-Track

COSMOS 2491 DEB, 57556 is space debris in LEO originally from a launch on Wed, 25 Dec 2013 UTC launched from the Plesetsk Missile And Space Complex (PKMTR). Debris objects in space refer to the collection of defunct objects orbiting the Earth. Examples of debris include non-operational satellites, rocket bodies, and fragments generated from explosions, collisions, or faulty payload assembly.

Loading next visibility...
Identifier
57556, 2013-076AT
Orbit
LEO
Country
Flag of CISCIS
Related business
Manufacturer
TsNIIKhM
Mission
Spacecraft
Bus & Motor
Unknown
Mass
Unknown
Launch date (UTC)
2013-12-25 (12 years ago)
Launch vehicle
Unknown
Launch site
Plesetsk Missile And Space Complex (PKMTR)
Object type
Payload
Rocket body
Debris
Shape & HBR
Unknown shape, 0.1 m
Radar Cross Section
Small (<0.1 m²)

Expand to show TLE details & history
Last TLE update: 1 week ago

TLE from 1 week ago
0 COSMOS 2491 DEB
1 57556U 13076AT  25276.82511035  .00002350  00000-0  15412-1 0  9996
2 57556  82.4773 322.3137 0058676 143.2637 217.2490 12.49440369109603
Epoch: 2025-10-03T19:48Z
TLE epoch observation values (Epoch: 2025-10-03T19:48:09.534Z)
Latitude
-0.00004°
Longitude
12.50811°
Altitude
1,506.291 km
Speed
7.095 km/s
True Right ascension
21h 29m 15s
True Declination
0° 00' 00"
Sunlit
Object was in full shadow at epoch
Visualization orbit readout
Latitude
Unknown
Longitude
Unknown
Altitude
Unknown
Speed
Unknown
Apparent Right ascension
Unknown
Apparent Declination
Unknown
Sunlit
N/A
Visualization observer readout
Local Sidereal Time
21:23:26
Azimuth
Unknown
Elevation
Unknown
Doppler factor
Unknown
Orbital elements
Apogee altitude
1,510.195 km
Perigee altitude
1,418.164 km
Semi-major axis
7,842.316 km
Eccentricity
0.00587
Inclination
82.4773°
RAAN
322.3137°
Arg. of periapsis
143.2637°
True anomaly
216.84439°
Mean anomaly
217.249°
Eccentric anomaly
217.04646°
Mean motion
3.12519 °/min
Orbital period
115.19 mins
BSTAR
0.015412
Loading maneuver chart data...
Computing Atmospheric mass density...
Loading historical data...
Loading historical data...
Loading historical data...
Loading historical data...
Loading historical data...
Loading historical data...
Loading historical data...

Documentation

Showing up to 5 results
|